Погода в Ахтанизовской

Россия / Краснодарский край     45°19′14″N   37°06′06″E
темп.,
°C
ветер,
м/с
пор.,
м/с
влажн.,
%
обл.,
%
осадки,
мм/ч
давл.,
гПа
погр.,
м
4 декабря, сб
сб400:00+13ю10177098 0.0 1015480
03:00+13ююз10177099 0.0 1015427
06:00+12ююз91480100 0.1 1014352
09:00+12ююз81381100 0.2 1015487
12:00+12ю61085100 0.6 1014304
15:00+13ю8107690 0.8 1012361
18:00+12ю81284100 0.0 1012371
21:00+12ю71183100 0.0 1011326
5 декабря, вс
вс500:00+12ююз3583100 0.0 1011130
03:00+11юз2391100 0.8 1011114
06:00+11ю3593100 3.4 1010195
09:00+12ююз61083100 4.3 1011424
12:00+13ююз8108529 0.4 1011617
15:00+12юз5787100 0.8 1011494
18:00+10сз449191 0.1 1013236
21:00+9сз3388100 0.1 1014224
6 декабря, пн
пн600:00+9зсз008894 0.1 101558
03:00+9ю229036 0.1 101579
06:00+10ююз238924 0.0 101554
09:00+12ююв5888100 0.0 1016200
12:00+13ю71183100 0.0 1016439
15:00+13ююв7137791 0.0 1015448
18:00+13ю8148160 0.0 1015332
21:00+13ю81479100 0.0 1015302
7 декабря, вт
вт700:00+12ююв6128299 0.0 1015252
03:00+12ююв6128099 0.0 1014226
06:00+12юв597892 0.0 1013152
09:00+12юв5117517 0.0 1012225
12:00+15ююв7156872 0.0 1011444
15:00+15ююв6136787 0.0 1008409
18:00+13юв476942 0.0 100797
21:00+12вюв45665 0.0 100657
8 декабря, ср
ср800:00+11вюв35700 0.0 100559
03:00+12ююв613795 0.0 1005222
06:00+13ююв814725 0.0 1004304
09:00+14ююз101862100 0.0 1005647
12:00+14ю101563100 0.0 1005895
15:00+14зюз5963100 0.0 1005373
18:00+13ю51074100 0.1 1007266
21:00+12ююз4582100 0.1 1008102